パンスターズ彗星

C/2017 P2 ( PanSTARRS )

English version
Home page
Updated on January 8, 2018

---------------------------------------------------------------------

・ プロフィール

発見日 2017年8月14日
発見光度 21.9等
発見者 Pan-STARRS 1 telescope (Haleakala)

・ 軌道要素

Epoch 2017 Nov. 23.0 TT = JDT 2458080.5
T 2017 Dec. 6.56442 TT                                  MPCW
q   2.4618121            (2000.0)            P               Q
z  +0.0007609      Peri.  132.23983     +0.53237757     +0.82457166
 +/-0.0000283      Node   165.54508     -0.80186931     +0.41876143
e   0.9981268      Incl.   50.08511     +0.27125583     -0.38042139
From 47 observations 2017 Aug. 14-Nov. 17, mean residual 0".3.

・ 光度変化

        m1 = 15.0 + 5 logΔ + 10.0 log r

---------------------------------------------------------------------

軌道要素はM.P.E.C. 2017-X08に掲載されたものです。
光度グラフはComet for Windowsで作成したものです。

---------------------------------------------------------------------

Copyright(C) Seiichi Yoshida (comet@aerith.net). All rights reserved.